Вернуться в каталог

STARLINK-5333

АктивенСвязьVLEO
NORAD 56507·PAYLOAD·🇺🇸 United States

Запущен May 14, 2023 с Cape Canaveral Space Force Station

Loading…

Ближайшие Пролёты (ближайшие 24 часа)

TLE

СвежийSource: CelesTrak SupGP

Эпоха: Sep 15, 2026, 01:42 UTC

1 56507C 23065E   26258.07131944 -.00008559  00000+0 -31008-3 0  2582
2 56507  42.9996 190.2014 0001334 267.2529 301.1430 15.27573729    16

Отслеживайте STARLINK-5333 в реальном времени с AllMySat

Download on the App Store